#timestamp,LO_Frequency,Hit,StdDev 
1512439215.1,286046997.1,N
1512439216.0,286046997.1,N
1512439235.8,286046999.4,N
1512439255.7,286046996.6,N
1512439275.5,286046998.7,N
1512439295.3,286046999.3,N
1512439315.1,286047003.7,N
1512439335.9,286047003.6,N
1512439355.7,286047007.6,Y
1512439375.5,286047012.1,P
1512439395.4,286047009.3,N
1512439415.2,286047011.9,N
1512439435.0,286047015.0,Y
1512439436.0,286047015.0,P
1512439455.8,286047005.4,N
1512439475.6,286047003.2,N
1512439495.4,286047004.4,N
1512439515.3,286047001.6,N
1512439535.1,286047002.9,N
1512439555.8,286047005.6,N
1512439575.7,286047005.4,N
1512439595.5,286047007.2,N
1512439615.3,286047003.0,N
1512439635.2,286047003.6,N
1512439655.9,286047002.9,N
1512439675.7,286047005.4,N
1512439695.6,286047007.9,N
1512439715.4,286047009.1,N
1512439735.2,286047007.4,N
1512439755.1,286047005.9,N
1512439756.0,286047005.9,N
1512439775.8,286047005.4,N
1512439795.6,286047007.6,N
1512439815.5,286047001.2,N
1512439835.3,286047000.9,N
1512439855.1,286046998.5,N
1512439875.8,286046999.2,N
1512439895.7,286046998.8,N
1512439915.5,286046995.4,N
1512439935.3,286046993.6,N
1512439955.2,286046992.4,N
1512439975.9,286046993.6,N
1512439995.7,286046991.8,N
1512440015.6,286046993.8,N
1512440035.4,286046995.0,N
1512440055.2,286046995.5,N
1512440075.1,286046995.9,N
1512440076.0,286046995.9,N
1512440095.8,286046998.1,N
1512440115.6,286047002.5,N
1512440135.5,286047005.0,N
1512440155.3,286047004.5,N
1512440175.1,286047003.1,N
1512440195.8,286047008.9,N
1512440215.7,286047008.2,N
1512440235.5,286047010.7,N
1512440255.3,286047006.6,N
1512440275.2,286047010.6,N
1512440295.9,286047012.1,N
1512440315.7,286047013.8,N
1512440335.6,286047014.3,N
1512440355.4,286047014.5,N
1512440375.2,286047018.1,N
1512440395.1,286047016.6,N
1512440396.0,286047016.6,N
1512440415.8,286047016.6,N
1512440435.6,286047015.4,N
1512440455.5,286047017.2,N
1512440475.3,286047015.3,N
1512440495.1,286047014.2,N
1512440515.8,286047017.9,N
1512440535.7,286047019.2,N
1512440555.5,286047025.1,N
1512440575.3,286047026.9,Y
1512440595.2,286047020.3,P
1512440615.0,286047019.6,P
1512440615.9,286047019.6,P
1512440635.8,286047020.3,Y
1512440655.6,286047000.1,P
1512440675.4,286047001.6,N
1512440695.2,286047003.8,N
1512440715.1,286047003.1,N
1512440716.0,286047003.1,N
1512440735.8,286047004.0,N
1512440755.6,286047001.8,N
1512440775.5,286047001.3,N
1512440795.3,286047001.4,N
1512440815.1,286047003.5,N
1512440835.9,286047005.1,N
1512440855.7,286047006.7,N
1512440875.5,286047007.3,N
1512440895.4,286047008.1,N
1512440915.2,286047012.4,Y
1512440935.0,286047003.3,P
1512440935.9,286047003.3,P
1512440955.8,286047002.5,P
1512440975.6,286047000.7,N
1512440995.4,286047002.3,N
1512441015.3,286047002.1,N
1512441035.1,286046998.7,N
1512441036.0,286046998.7,N
1512441055.8,286047001.0,N
1512441075.6,286047003.1,N
1512441095.5,286047003.5,N
1512441115.3,286047004.1,N
1512441135.1,286046998.6,N
1512441155.9,286046996.3,N
1512441175.7,286046990.4,Y
1512441195.5,286046990.2,P
1512441215.4,286046989.6,N
1512441235.2,286046986.1,N
1512441255.0,286046987.6,N
1512441255.9,286046987.6,N
1512441275.8,286046987.8,N
1512441295.6,286046990.4,N
1512441315.4,286046990.1,N
1512441335.3,286046994.0,N
1512441355.1,286046991.7,N
1512441356.0,286046991.7,N
1512441375.8,286046993.5,N
1512441395.7,286046994.8,N
1512441415.5,286046994.7,N
1512441435.3,286046991.0,N
1512441455.2,286046993.1,N
1512441475.9,286046989.8,N
1512441495.7,286046988.0,Y
1512441515.6,286046996.2,P
1512441535.4,286046994.7,N
1512441555.2,286046994.5,N
1512441575.1,286046991.7,Y
1512441576.0,286046991.7,P
1512441595.8,286046999.6,N
1512441615.6,286046999.2,N
1512441635.4,286047001.1,N
1512441655.3,286047000.3,N
1512441675.1,286046995.1,N
1512441695.8,286046995.8,N
1512441715.7,286046998.7,N
1512441735.5,286046999.0,N
1512441755.3,286046997.6,N
1512441775.2,286046994.1,N
1512441795.9,286046991.7,N
1512441815.7,286046992.5,N
1512441835.6,286046992.1,N
1512441855.4,286046991.6,N
1512441875.2,286046991.5,N
1512441895.0,286046992.4,N
1512441896.0,286046992.4,N
1512441915.8,286046993.4,N
1512441935.6,286046998.0,N
1512441955.4,286046997.8,N
1512441975.3,286046999.2,N
1512441995.1,286046995.5,N
1512442015.8,286046996.7,N
1512442035.7,286046998.6,N
1512442055.5,286046998.7,N
1512442075.3,286046999.2,N
1512442095.2,286046998.9,N
1512442115.9,286047000.4,N
1512442135.7,286046999.9,N
1512442155.6,286047002.8,N
1512442175.4,286047004.5,N
1512442195.2,286047010.8,Y
1512442215.1,286047012.3,P
1512442216.0,286047012.3,N
1512442235.8,286047011.8,N
1512442255.6,286047008.2,N
1512442275.5,286047007.6,N
1512442295.3,286047006.6,N
1512442315.1,286047007.7,N
1512442335.8,286047007.9,N
1512442355.7,286047010.3,N
1512442375.5,286047009.9,N
1512442395.3,286047013.7,Y
1512442415.2,286047003.0,P
1512442435.0,286047001.5,N
1512442435.9,286047001.5,N
1512442455.7,286047003.1,N
1512442475.6,286046999.4,N
1512442495.4,286046997.3,N
1512442515.2,286046997.7,N
1512442535.1,286046996.4,N
1512442536.0,286046996.4,N
1512442555.8,286046997.6,N
1512442575.6,286046999.3,N
1512442595.5,286046995.7,N
1512442615.3,286046998.0,N
1512442635.1,286046994.8,N
1512442655.9,286046995.7,N
1512442675.7,286046992.1,N
1512442695.5,286046987.6,Y
1512442715.4,286046992.3,P
1512442735.2,286046996.6,N
1512442755.0,286047002.5,N
1512442755.9,286047002.5,N
1512442775.8,286046996.9,N
1512442795.6,286046993.8,N
